Previsão horária em Abbevillers

Hoje, 11 Abril, Domingo

Tempo Temperatura Precipitação Vento Pressão Humidade
00:00 +10°C° 0 mm 1 m/s 709 mmHg 75%
01:00 +9°C° 0 mm 1 m/s 709 mmHg 77%
02:00 +9°C° 0 mm 1 m/s 709 mmHg 79%
03:00 +9°C° 0 mm 1 m/s 709 mmHg 81%
04:00 +9°C° 0 mm 1 m/s 708 mmHg 82%
05:00 +8°C° 0 mm 0 m/s 708 mmHg 82%
06:00 +8°C° 0 mm 0 m/s 708 mmHg 83%
07:00 +11°C° 0 mm 1 m/s 708 mmHg 75%
08:00 +12°C° 0 mm 1 m/s 708 mmHg 67%
09:00 +14°C° 0 mm 2 m/s 708 mmHg 59%
10:00 +13°C° 0.1 mm 3 m/s 708 mmHg 62%
11:00 +13°C° 0.1 mm 4 m/s 708 mmHg 66%
12:00 +13°C° 0.1 mm 4 m/s 708 mmHg 69%
13:00 +12°C° 0.1 mm 4 m/s 709 mmHg 74%
14:00 +11°C° 0.1 mm 4 m/s 709 mmHg 79%
15:00 +10°C° 0.1 mm 4 m/s 709 mmHg 84%
16:00 +9°C° 0.3 mm 3 m/s 709 mmHg 87%
17:00 +7°C° 0.3 mm 3 m/s 710 mmHg 90%
18:00 +5°C° 0.3 mm 3 m/s 710 mmHg 93%
19:00 +5°C° 0.3 mm 3 m/s 711 mmHg 94%
20:00 +4°C° 0.3 mm 3 m/s 712 mmHg 95%
21:00 +5°C° 0.3 mm 2 m/s 712 mmHg 95%
22:00 +4°C° 1.3 mm 2 m/s 713 mmHg 96%
23:00 +3°C° 1.3 mm 2 m/s 713 mmHg 97%

Amanhã, 12 Abril, Segunda-feira

Tempo Temperatura Precipitação Vento Pressão Humidade
00:00 +2°C° 1.3 mm 2 m/s 714 mmHg 98%
01:00 +2°C° 1.4 mm 2 m/s 714 mmHg 98%
02:00 +1°C° 1.4 mm 2 m/s 714 mmHg 98%
03:00 +1°C° 1.4 mm 2 m/s 715 mmHg 98%
04:00 +1°C° 1.1 mm 2 m/s 715 mmHg 98%
05:00 +1°C° 1.1 mm 2 m/s 716 mmHg 99%
06:00 +2°C° 1.1 mm 1 m/s 716 mmHg 99%
07:00 +2°C° 0.7 mm 1 m/s 717 mmHg 97%
08:00 +1°C° 0.7 mm 2 m/s 717 mmHg 95%
09:00 +1°C° 0.7 mm 2 m/s 718 mmHg 94%
10:00 +2°C° 0.1 mm 2 m/s 718 mmHg 90%
11:00 +2°C° 0.1 mm 2 m/s 718 mmHg 86%
12:00 +3°C° 0.1 mm 2 m/s 719 mmHg 82%
13:00 +3°C° 0.1 mm 2 m/s 719 mmHg 80%
14:00 +4°C° 0.1 mm 2 m/s 719 mmHg 78%
15:00 +4°C° 0.1 mm 2 m/s 719 mmHg 77%
16:00 +3°C° 0.1 mm 2 m/s 719 mmHg 81%
17:00 +3°C° 0.1 mm 1 m/s 719 mmHg 85%
18:00 +2°C° 0.1 mm 1 m/s 719 mmHg 89%
19:00 +1°C° 0 mm 1 m/s 719 mmHg 90%
20:00 0°C° 0 mm 1 m/s 720 mmHg 91%
21:00 -1°C° 0 mm 1 m/s 720 mmHg 92%
22:00 -2°C° 0 mm 1 m/s 720 mmHg 92%
23:00 -2°C° 0 mm 1 m/s 720 mmHg 92%

Depois de amanhã, 13 Abril, Terça-feira

Tempo Temperatura Precipitação Vento Pressão Humidade
00:00 -2°C° 0 mm 1 m/s 720 mmHg 92%
01:00 -2°C° 0 mm 1 m/s 720 mmHg 92%
02:00 -3°C° 0 mm 1 m/s 720 mmHg 92%
03:00 -3°C° 0 mm 1 m/s 720 mmHg 93%
04:00 -3°C° 0 mm 0 m/s 720 mmHg 91%
05:00 -2°C° 0 mm 0 m/s 720 mmHg 90%
06:00 -1°C° 0 mm 0 m/s 720 mmHg 89%
07:00 +1°C° 0.1 mm 1 m/s 720 mmHg 86%
08:00 +2°C° 0.1 mm 2 m/s 721 mmHg 83%
09:00 +2°C° 0.1 mm 3 m/s 721 mmHg 81%
10:00 +3°C° 0.2 mm 3 m/s 721 mmHg 77%
11:00 +3°C° 0.2 mm 3 m/s 720 mmHg 74%
12:00 +4°C° 0.2 mm 3 m/s 720 mmHg 71%
13:00 +4°C° 0.2 mm 3 m/s 720 mmHg 70%
14:00 +4°C° 0.2 mm 3 m/s 720 mmHg 69%
15:00 +4°C° 0.2 mm 4 m/s 720 mmHg 68%
16:00 +3°C° 0.1 mm 3 m/s 720 mmHg 71%
17:00 +3°C° 0.1 mm 2 m/s 720 mmHg 73%
18:00 +1°C° 0.1 mm 2 m/s 720 mmHg 76%
19:00 -1°C° 0 mm 2 m/s 720 mmHg 78%
20:00 0°C° 0 mm 1 m/s 721 mmHg 80%
21:00 -1°C° 0 mm 1 m/s 721 mmHg 82%
22:00 -1°C° 0 mm 1 m/s 721 mmHg 83%
23:00 -2°C° 0 mm 1 m/s 721 mmHg 83%

14 Abril, Quarta-feira

Tempo Temperatura Precipitação Vento Pressão Humidade
00:00 -2°C° 0 mm 1 m/s 721 mmHg 84%
01:00 -2°C° 0 mm 1 m/s 721 mmHg 85%
02:00 -2°C° 0 mm 1 m/s 720 mmHg 86%
03:00 -3°C° 0 mm 1 m/s 720 mmHg 86%
04:00 -2°C° 0 mm 1 m/s 720 mmHg 85%
05:00 -1°C° 0 mm 1 m/s 720 mmHg 84%
06:00 0°C° 0 mm 1 m/s 720 mmHg 83%
07:00 -1°C° 0 mm 2 m/s 720 mmHg 76%
08:00 +1°C° 0 mm 3 m/s 720 mmHg 69%
09:00 +3°C° 0 mm 3 m/s 720 mmHg 62%
10:00 +4°C° 0.1 mm 3 m/s 720 mmHg 58%
11:00 +5°C° 0.1 mm 3 m/s 720 mmHg 55%
12:00 +5°C° 0.1 mm 4 m/s 720 mmHg 52%
13:00 +5°C° 0.1 mm 4 m/s 719 mmHg 52%
14:00 +5°C° 0.1 mm 4 m/s 719 mmHg 52%
15:00 +5°C° 0.1 mm 4 m/s 719 mmHg 53%
16:00 +4°C° 0.1 mm 3 m/s 719 mmHg 61%
17:00 +3°C° 0.1 mm 3 m/s 719 mmHg 69%
18:00 +2°C° 0.1 mm 2 m/s 719 mmHg 77%
19:00 +1°C° 0.1 mm 2 m/s 719 mmHg 82%
20:00 +1°C° 0.1 mm 2 m/s 719 mmHg 87%
21:00 -1°C° 0.1 mm 2 m/s 719 mmHg 92%
22:00 0°C° 0 mm 1 m/s 719 mmHg 92%
23:00 0°C° 0 mm 1 m/s 719 mmHg 93%

15 Abril, Quinta-feira

Tempo Temperatura Precipitação Vento Pressão Humidade
00:00 -1°C° 0 mm 1 m/s 718 mmHg 94%
01:00 -1°C° 0 mm 1 m/s 718 mmHg 94%
02:00 -2°C° 0 mm 1 m/s 718 mmHg 94%
03:00 -2°C° 0 mm 1 m/s 718 mmHg 94%
04:00 -3°C° 0 mm 2 m/s 719 mmHg 91%
05:00 -3°C° 0 mm 2 m/s 719 mmHg 88%
06:00 -2°C° 0 mm 2 m/s 719 mmHg 85%
07:00 -1°C° 0 mm 3 m/s 719 mmHg 76%
08:00 0°C° 0 mm 4 m/s 719 mmHg 68%
09:00 +3°C° 0 mm 4 m/s 719 mmHg 59%
10:00 +4°C° 0.1 mm 4 m/s 719 mmHg 57%
11:00 +4°C° 0.1 mm 4 m/s 719 mmHg 55%
12:00 +5°C° 0.1 mm 4 m/s 719 mmHg 53%
13:00 +5°C° 0.1 mm 5 m/s 719 mmHg 56%
14:00 +5°C° 0.1 mm 5 m/s 718 mmHg 59%
15:00 +4°C° 0.1 mm 6 m/s 718 mmHg 62%
16:00 +3°C° 0.1 mm 5 m/s 718 mmHg 65%
17:00 +3°C° 0.1 mm 4 m/s 718 mmHg 68%
18:00 +1°C° 0.1 mm 4 m/s 718 mmHg 71%
19:00 -1°C° 0 mm 4 m/s 718 mmHg 74%
20:00 -1°C° 0 mm 3 m/s 718 mmHg 77%
21:00 -2°C° 0 mm 3 m/s 718 mmHg 80%
22:00 -4°C° 0 mm 3 m/s 718 mmHg 83%
23:00 -4°C° 0 mm 3 m/s 718 mmHg 86%

16 Abril, Sexta-feira

Tempo Temperatura Precipitação Vento Pressão Humidade
00:00 -4°C° 0 mm 2 m/s 718 mmHg 89%
01:00 -4°C° 0 mm 2 m/s 718 mmHg 91%
02:00 -4°C° 0 mm 2 m/s 717 mmHg 92%
03:00 -5°C° 0 mm 2 m/s 717 mmHg 94%
04:00 -5°C° 0 mm 3 m/s 717 mmHg 92%
05:00 -4°C° 0 mm 3 m/s 717 mmHg 90%
06:00 -4°C° 0 mm 3 m/s 717 mmHg 88%
07:00 -2°C° 0 mm 4 m/s 717 mmHg 81%
08:00 -1°C° 0 mm 4 m/s 717 mmHg 73%
09:00 +1°C° 0 mm 4 m/s 717 mmHg 65%
10:00 +4°C° 0 mm 4 m/s 717 mmHg 60%
11:00 +5°C° 0 mm 4 m/s 717 mmHg 55%
12:00 +7°C° 0 mm 4 m/s 716 mmHg 49%
13:00 +7°C° 0 mm 4 m/s 716 mmHg 50%
14:00 +7°C° 0 mm 4 m/s 716 mmHg 50%
15:00 +8°C° 0 mm 5 m/s 715 mmHg 51%
16:00 +6°C° 0 mm 4 m/s 715 mmHg 60%
17:00 +5°C° 0 mm 4 m/s 716 mmHg 68%
18:00 +3°C° 0 mm 3 m/s 716 mmHg 77%
19:00 +2°C° 0 mm 3 m/s 716 mmHg 82%
20:00 +1°C° 0 mm 3 m/s 716 mmHg 87%
21:00 0°C° 0 mm 3 m/s 716 mmHg 91%
22:00 -1°C° 0 mm 2 m/s 716 mmHg 93%
23:00 -1°C° 0 mm 2 m/s 716 mmHg 94%
Mostrar mais